Hourly Weather Rudevichi

Today, 26 July, Monday

Time Temperature Precipitation Wind Pressure Humidity
00:00 +19°C° 0 mm 3 mps 747 mmHg 72%
01:00 +18°C° 0 mm 3 mps 747 mmHg 72%
02:00 +18°C° 0 mm 3 mps 747 mmHg 73%
03:00 +18°C° 0 mm 3 mps 747 mmHg 75%
04:00 +17°C° 0 mm 3 mps 747 mmHg 77%
05:00 +17°C° 0 mm 3 mps 747 mmHg 79%
06:00 +19°C° 0 mm 3 mps 747 mmHg 75%
07:00 +20°C° 0 mm 4 mps 747 mmHg 71%
08:00 +22°C° 0 mm 4 mps 747 mmHg 66%
09:00 +23°C° 0 mm 5 mps 747 mmHg 61%
10:00 +26°C° 0 mm 5 mps 747 mmHg 56%
11:00 +28°C° 0 mm 5 mps 747 mmHg 51%
12:00 +28°C° 0 mm 5 mps 747 mmHg 51%
13:00 +28°C° 0 mm 5 mps 747 mmHg 51%
14:00 +28°C° 0 mm 5 mps 747 mmHg 51%
15:00 +27°C° 0 mm 5 mps 746 mmHg 53%
16:00 +27°C° 0 mm 4 mps 746 mmHg 55%
17:00 +27°C° 0 mm 3 mps 746 mmHg 56%
18:00 +26°C° 0 mm 3 mps 746 mmHg 62%
19:00 +25°C° 0 mm 3 mps 746 mmHg 68%
20:00 +22°C° 0 mm 3 mps 746 mmHg 74%
21:00 +22°C° 0 mm 3 mps 746 mmHg 73%
22:00 +22°C° 0 mm 4 mps 745 mmHg 72%
23:00 +21°C° 0 mm 4 mps 745 mmHg 71%

Tomorrow, 27 July, Tuesday

Time Temperature Precipitation Wind Pressure Humidity
00:00 +21°C° 0 mm 4 mps 745 mmHg 75%
01:00 +20°C° 0 mm 4 mps 745 mmHg 79%
02:00 +20°C° 0 mm 5 mps 745 mmHg 82%
03:00 +19°C° 0.2 mm 4 mps 745 mmHg 85%
04:00 +18°C° 0.2 mm 4 mps 745 mmHg 88%
05:00 +18°C° 0.2 mm 4 mps 745 mmHg 90%
06:00 +19°C° 0 mm 5 mps 745 mmHg 85%
07:00 +21°C° 0 mm 5 mps 744 mmHg 79%
08:00 +22°C° 0 mm 5 mps 744 mmHg 73%
09:00 +23°C° 0.1 mm 5 mps 744 mmHg 69%
10:00 +26°C° 0.1 mm 5 mps 744 mmHg 65%
11:00 +27°C° 0.1 mm 5 mps 744 mmHg 61%
12:00 +28°C° 0 mm 5 mps 744 mmHg 59%
13:00 +29°C° 0 mm 5 mps 744 mmHg 58%
14:00 +30°C° 0 mm 5 mps 743 mmHg 57%
15:00 +29°C° 1.1 mm 5 mps 743 mmHg 62%
16:00 +28°C° 1.1 mm 5 mps 742 mmHg 67%
17:00 +27°C° 1.1 mm 6 mps 742 mmHg 73%
18:00 +25°C° 0.9 mm 5 mps 742 mmHg 79%
19:00 +22°C° 0.9 mm 4 mps 742 mmHg 86%
20:00 +20°C° 0.9 mm 3 mps 743 mmHg 93%
21:00 +19°C° 0 mm 3 mps 743 mmHg 94%
22:00 +19°C° 0 mm 3 mps 744 mmHg 95%
23:00 +18°C° 0 mm 2 mps 744 mmHg 96%

Day after tomorrow, 28 July, Wednesday

Time Temperature Precipitation Wind Pressure Humidity
00:00 +18°C° 0 mm 2 mps 744 mmHg 96%
01:00 +18°C° 0 mm 2 mps 744 mmHg 96%
02:00 +18°C° 0 mm 2 mps 744 mmHg 96%
03:00 +18°C° 0 mm 2 mps 744 mmHg 96%
04:00 +18°C° 0 mm 2 mps 744 mmHg 95%
05:00 +18°C° 0 mm 2 mps 744 mmHg 95%
06:00 +19°C° 0 mm 2 mps 744 mmHg 89%
07:00 +21°C° 0 mm 3 mps 744 mmHg 84%
08:00 +22°C° 0 mm 3 mps 744 mmHg 78%
09:00 +25°C° 0.1 mm 3 mps 744 mmHg 71%
10:00 +26°C° 0.1 mm 4 mps 744 mmHg 65%
11:00 +28°C° 0.1 mm 4 mps 745 mmHg 58%
12:00 +29°C° 0 mm 4 mps 744 mmHg 54%
13:00 +30°C° 0 mm 4 mps 744 mmHg 49%
14:00 +30°C° 0 mm 4 mps 744 mmHg 45%
15:00 +30°C° 0 mm 4 mps 744 mmHg 46%
16:00 +30°C° 0 mm 3 mps 744 mmHg 47%
17:00 +30°C° 0 mm 3 mps 743 mmHg 49%
18:00 +28°C° 0 mm 2 mps 743 mmHg 54%
19:00 +27°C° 0 mm 2 mps 743 mmHg 60%
20:00 +25°C° 0 mm 2 mps 743 mmHg 66%
21:00 +25°C° 0 mm 2 mps 743 mmHg 67%
22:00 +24°C° 0 mm 2 mps 743 mmHg 67%
23:00 +23°C° 0 mm 2 mps 743 mmHg 68%

29 July, Thursday

Time Temperature Precipitation Wind Pressure Humidity
00:00 +23°C° 0 mm 2 mps 742 mmHg 69%
01:00 +21°C° 0 mm 2 mps 742 mmHg 69%
02:00 +21°C° 0 mm 2 mps 742 mmHg 70%
03:00 +21°C° 0.2 mm 2 mps 742 mmHg 75%
04:00 +20°C° 0.2 mm 2 mps 742 mmHg 81%
05:00 +19°C° 0.2 mm 2 mps 742 mmHg 87%
06:00 +20°C° 1 mm 2 mps 742 mmHg 87%
07:00 +20°C° 1 mm 2 mps 742 mmHg 87%
08:00 +21°C° 1 mm 2 mps 742 mmHg 87%
09:00 +22°C° 0 mm 3 mps 742 mmHg 80%
10:00 +25°C° 0 mm 4 mps 742 mmHg 72%
11:00 +26°C° 0 mm 5 mps 743 mmHg 65%
12:00 +26°C° 0.1 mm 5 mps 743 mmHg 60%
13:00 +27°C° 0.1 mm 6 mps 743 mmHg 55%
14:00 +27°C° 0.1 mm 6 mps 743 mmHg 50%
15:00 +27°C° 0 mm 5 mps 743 mmHg 51%
16:00 +27°C° 0 mm 5 mps 743 mmHg 51%
17:00 +27°C° 0 mm 4 mps 743 mmHg 51%
18:00 +26°C° 0 mm 4 mps 743 mmHg 57%
19:00 +24°C° 0 mm 3 mps 743 mmHg 62%
20:00 +21°C° 0 mm 3 mps 743 mmHg 67%
21:00 +21°C° 0 mm 3 mps 743 mmHg 68%
22:00 +20°C° 0 mm 2 mps 743 mmHg 68%
23:00 +19°C° 0 mm 2 mps 743 mmHg 69%

30 July, Friday

Time Temperature Precipitation Wind Pressure Humidity
00:00 +19°C° 0 mm 2 mps 743 mmHg 69%
01:00 +19°C° 0 mm 2 mps 743 mmHg 69%
02:00 +19°C° 0 mm 2 mps 743 mmHg 69%
03:00 +19°C° 0 mm 2 mps 743 mmHg 68%
04:00 +19°C° 0 mm 2 mps 743 mmHg 67%
05:00 +19°C° 0 mm 2 mps 742 mmHg 67%
06:00 +20°C° 0 mm 3 mps 742 mmHg 66%
07:00 +22°C° 0 mm 3 mps 742 mmHg 65%
08:00 +24°C° 0 mm 3 mps 742 mmHg 65%
09:00 +25°C° 0 mm 3 mps 742 mmHg 59%
10:00 +27°C° 0 mm 3 mps 742 mmHg 53%
11:00 +28°C° 0 mm 4 mps 741 mmHg 47%
12:00 +29°C° 0 mm 4 mps 741 mmHg 46%
13:00 +29°C° 0 mm 5 mps 740 mmHg 45%
14:00 +30°C° 0 mm 5 mps 740 mmHg 44%
15:00 +28°C° 0.3 mm 4 mps 739 mmHg 54%
16:00 +27°C° 0.3 mm 4 mps 739 mmHg 64%
17:00 +25°C° 0.3 mm 3 mps 738 mmHg 74%
18:00 +25°C° 0.1 mm 3 mps 738 mmHg 73%
19:00 +25°C° 0.1 mm 3 mps 738 mmHg 73%
20:00 +25°C° 0.1 mm 4 mps 737 mmHg 72%
21:00 +24°C° 0.5 mm 3 mps 738 mmHg 78%
22:00 +21°C° 0.5 mm 3 mps 738 mmHg 84%
23:00 +20°C° 0.5 mm 2 mps 739 mmHg 90%

31 July, Saturday

Time Temperature Precipitation Wind Pressure Humidity
00:00 +20°C° 0.1 mm 3 mps 739 mmHg 90%
01:00 +19°C° 0.1 mm 3 mps 739 mmHg 91%
02:00 +19°C° 0.1 mm 4 mps 739 mmHg 91%
03:00 +18°C° 0 mm 3 mps 739 mmHg 91%
04:00 +17°C° 0 mm 3 mps 739 mmHg 92%
05:00 +16°C° 0 mm 3 mps 739 mmHg 92%
06:00 +17°C° 0 mm 3 mps 740 mmHg 83%
07:00 +18°C° 0 mm 3 mps 740 mmHg 75%
08:00 +19°C° 0 mm 3 mps 740 mmHg 66%
09:00 +20°C° 0 mm 3 mps 740 mmHg 59%
10:00 +22°C° 0 mm 3 mps 740 mmHg 51%
11:00 +24°C° 0 mm 3 mps 740 mmHg 43%
12:00 +25°C° 0 mm 4 mps 740 mmHg 42%
13:00 +26°C° 0 mm 5 mps 740 mmHg 40%
14:00 +26°C° 0 mm 5 mps 740 mmHg 39%
15:00 +26°C° 0 mm 5 mps 740 mmHg 41%
16:00 +26°C° 0 mm 5 mps 740 mmHg 42%
17:00 +26°C° 0 mm 5 mps 739 mmHg 44%
18:00 +25°C° 0 mm 4 mps 740 mmHg 50%
19:00 +22°C° 0 mm 3 mps 740 mmHg 56%
20:00 +20°C° 0 mm 2 mps 740 mmHg 62%
21:00 +19°C° 0 mm 2 mps 740 mmHg 64%
22:00 +19°C° 0 mm 3 mps 740 mmHg 66%
23:00 +18°C° 0 mm 3 mps 740 mmHg 68%
Show more

We Need Your Consent

Meteoprog and our Service Providers may store and access personal data such as cookies, device identifiers or other similar technologies on your device and process such data to personalise content and ads, as well as provide social media features and to analyse the traffic.

  • Store and/or access information on your device

    Cookies, device identifiers or other information can be stored or accessed on your device for the purposes indicated above.

  • Personalised ads and content, ad and content measurement, audience insights, and products development

    Ads and content can be personalised based on a profile. More data can be added to better personalise ads and content. Ad and content performance can be measured. Insights about the audience who saw the ads and content can be derived. Such data can be used to develop or improve user’s experience, systems and software.

By clicking ‘I Agree’ you will allow the use of indicated cookies, device identifiers, web beacons or other similar technologies. Your settings can be changed in the browser on your device.

For certain purposes, legitimate interests may be relied on, rather than consent. You can read more about this in our Privacy and Cookie Policy.